Weather History for KEAU - March, 2013

Change the Weather History Date:

Monday, March 4, 2013

  Actual Average Record
Temperature  
Mean Temperature 21 °F 26 °F  
Max Temperature 28 °F 35 °F 61 °F (2000)
Min Temperature 13 °F 17 °F -19 °F (1917)
Degree Days  
Heating Degree Days 44 39  
Month to date heating degree days 183 158  
Since 1 July heating degree days 6042 6179  
Cooling Degree Days 0 0  
Month to date cooling degree days 0 0  
Year to date cooling degree days 0 0  
Moisture  
Dew Point 12 °F    
Average Humidity 62    
Maximum Humidity 81    
Minimum Humidity 42    
Precipitation  
Precipitation 0.02 in 0.04 in 1.10 in (1923)
Month to date precipitation 0.02 0.16  
Year to date precipitation 2.59 1.86  
Snow  
Snow 0.20 in 0.30 in 9.00 in (1923)
Month to date snowfall 0.2 1.2  
Since 1 July snowfall 42.7 37.5  
Snow Depth 8.00 in    
Sea Level Pressure  
Sea Level Pressure 30.06 in    
Wind  
Wind Speed 9 mph (East)    
Max Wind Speed 15 mph    
Max Gust Speed 20 mph    
Visibility 8 miles    
Events Snow    
T = Trace of Precipitation, MM = Missing Value Source: NWS Daily Summary

Daily Weather History Graph

Daily Weather History Graph

Search for Another Location

Airport or City:

Trip Planner

Search our weather history database for the weather conditions in past years. The results will help you decide how hot, cold, wet, or windy it might be!

Date:

Astronomy

Mar. 04, 2013 Rise Set
Actual Time 6:37 AM CST 5:57 PM CST
Civil Twilight 6:08 AM CST 6:27 PM CST
Nautical Twilight 5:34 AM CST 7:01 PM CST
Astronomical Twilight 5:00 AM CST 7:35 PM CST
Moon 12:58 AM CST (3/4) 10:28 AM CST (3/4)
Length of Visible Light 12h 18m
Length of Day
11h 20m
Waning Gibbous, 52% of the Moon is Illuminated
Mar 4
Waning Gibbous
Mar 4
Last Quarter
Mar 11
New
Mar 19
First Quarter
Mar 27
Full

Hourly Weather History & Observations

Time (CST) Temp. Windchill Dew Point Humidity Pressure Visibility Wind Dir Wind Speed Gust Speed Precip Events Conditions
12:56 AM 18.0 °F 12.7 °F -2.0 °F 41% 30.09 in 10.0 mi ENE 3.5 mph - N/A   Clear
1:56 AM 16.0 °F 10.4 °F 1.0 °F 52% 30.09 in 10.0 mi NE 3.5 mph - N/A   Scattered Clouds
3:56 AM 19.0 °F 8.2 °F 1.9 °F 47% 30.07 in 10.0 mi East 9.2 mph - N/A   Clear
4:56 AM 18.0 °F 7.7 °F 5.0 °F 57% 30.07 in 10.0 mi East 8.1 mph - N/A   Mostly Cloudy
5:56 AM 18.0 °F 8.7 °F 5.0 °F 57% 30.07 in 10.0 mi ENE 6.9 mph - N/A   Overcast
6:56 AM 19.9 °F 12.1 °F 6.1 °F 55% 30.07 in 10.0 mi East 5.8 mph - N/A   Overcast
7:56 AM 21.0 °F 10.6 °F 6.1 °F 53% 30.08 in 10.0 mi ESE 9.2 mph - N/A   Overcast
8:56 AM 21.9 °F 9.8 °F 8.1 °F 55% 30.06 in 10.0 mi ESE 12.7 mph - N/A   Overcast
9:56 AM 24.1 °F 14.4 °F 10.0 °F 55% 30.07 in 10.0 mi ESE 9.2 mph - N/A   Overcast
10:56 AM 25.0 °F 14.2 °F 7.0 °F 46% 30.08 in 10.0 mi ESE 11.5 mph 19.6 mph N/A   Overcast
11:56 AM 26.1 °F 16.2 °F 7.0 °F 44% 30.08 in 10.0 mi SE 10.4 mph - N/A   Overcast
12:56 PM 26.1 °F 15.0 °F 9.0 °F 49% 30.05 in 10.0 mi East 12.7 mph - N/A   Overcast
1:56 PM 25.0 °F 13.6 °F 14.0 °F 63% 30.04 in 9.0 mi ESE 12.7 mph - 0.00 in   Overcast
2:07 PM 24.8 °F 14.6 °F 15.8 °F 69% 29.99 in 2.5 mi ESE 10.4 mph - 0.00 in Snow Light Snow
2:56 PM 25.0 °F 13.6 °F 17.1 °F 72% 30.04 in 1.8 mi ESE 12.7 mph - 0.00 in Snow Light Snow
3:14 PM 24.8 °F 13.4 °F 17.6 °F 74% 30.00 in 2.0 mi ESE 12.7 mph 19.6 mph 0.00 in Snow Light Snow
3:56 PM 27.0 °F 15.2 °F 16.0 °F 63% 30.03 in 4.0 mi East 15.0 mph - 0.00 in Snow Light Snow
4:56 PM 27.0 °F 18.0 °F 18.0 °F 69% 30.04 in 8.0 mi East 9.2 mph - 0.00 in Snow Light Snow
5:56 PM 28.0 °F 17.5 °F 16.0 °F 61% 30.06 in 10.0 mi ESE 12.7 mph 16.1 mph 0.00 in   Overcast
6:56 PM 28.0 °F 18.6 °F 15.1 °F 58% 30.04 in 10.0 mi East 10.4 mph - N/A   Overcast
7:56 PM 28.0 °F 19.3 °F 15.1 °F 58% 30.05 in 10.0 mi East 9.2 mph - N/A   Overcast
8:56 PM 28.0 °F 19.3 °F 15.1 °F 58% 30.06 in 10.0 mi ESE 9.2 mph - N/A   Overcast
9:56 PM 27.0 °F 19.5 °F 15.1 °F 61% 30.09 in 7.0 mi SE 6.9 mph - 0.00 in Snow Light Snow
10:17 PM 26.6 °F 20.0 °F 17.6 °F 69% 30.05 in 2.5 mi East 5.8 mph - 0.00 in Snow Light Snow
10:26 PM 24.8 °F 20.5 °F 17.6 °F 74% 30.05 in 1.5 mi East 3.5 mph - 0.00 in Snow Light Snow
10:46 PM 24.8 °F 19.1 °F 19.4 °F 80% 30.05 in 2.0 mi ENE 4.6 mph - 0.00 in Snow Light Snow
10:56 PM 24.1 °F 17.0 °F 19.0 °F 81% 30.09 in 3.0 mi ENE 5.8 mph - 0.00 in Snow Light Snow
11:56 PM 24.1 °F 14.4 °F 19.0 °F 81% 30.08 in 10.0 mi ENE 9.2 mph - 0.00 in   Overcast